Time,TemperatureF,DewpointF,PressureIn,WindDirection,WindDirectionDegrees,WindSpeedMPH,WindSpeedGustMPH,Humidity,HourlyPrecipIn,Conditions,Clouds,dailyrainin,SoftwareType,DateUTC
2014-07-22 00:01:00,74.6,68.8,30.05,NNE,13,0.0,0.0,82,0.00,,,0.00,VWS V15.00,2014-07-22 04:01:00,
2014-07-22 00:06:00,74.4,68.6,30.05,NNE,13,0.0,0.0,82,0.00,,,0.00,VWS V15.00,2014-07-22 04:06:00,
2014-07-22 00:11:00,74.3,68.4,30.05,NNE,13,0.0,0.0,82,0.00,,,0.00,VWS V15.00,2014-07-22 04:11:00,
2014-07-22 00:16:00,74.2,68.4,30.05,NNE,13,0.0,0.0,82,0.00,,,0.00,VWS V15.00,2014-07-22 04:16:00,
2014-07-22 00:21:00,74.3,68.4,30.05,NNE,13,0.0,0.0,82,0.00,,,0.00,VWS V15.00,2014-07-22 04:21:00,
2014-07-22 00:26:00,74.4,68.6,30.05,NNE,13,0.0,0.0,82,0.00,,,0.00,VWS V15.00,2014-07-22 04:26:00,
2014-07-22 00:31:00,74.4,68.6,30.05,NNE,13,0.0,0.0,82,0.00,,,0.00,VWS V15.00,2014-07-22 04:31:00,
2014-07-22 00:36:00,74.4,68.6,30.05,NNE,13,0.0,0.0,82,0.00,,,0.00,VWS V15.00,2014-07-22 04:36:00,
2014-07-22 00:41:00,74.3,68.4,30.05,NNE,13,0.0,0.0,82,0.00,,,0.00,VWS V15.00,2014-07-22 04:41:00,
2014-07-22 00:46:00,74.2,68.7,30.05,NNE,13,0.0,0.0,83,0.00,,,0.00,VWS V15.00,2014-07-22 04:46:00,
2014-07-22 00:51:00,74.0,68.5,30.04,NNE,13,0.0,0.0,83,0.00,,,0.00,VWS V15.00,2014-07-22 04:51:00,
2014-07-22 00:56:00,73.7,68.6,30.04,NNE,13,0.0,0.0,84,0.00,,,0.00,VWS V15.00,2014-07-22 04:56:00,
2014-07-22 01:01:00,73.5,68.4,30.05,NNE,13,0.0,0.0,84,0.00,,,0.00,VWS V15.00,2014-07-22 05:01:00,
2014-07-22 01:06:00,73.3,68.5,30.05,NNE,13,0.0,0.0,85,0.00,,,0.00,VWS V15.00,2014-07-22 05:06:00,
2014-07-22 01:11:00,73.1,68.3,30.05,NNE,13,0.0,0.0,85,0.00,,,0.00,VWS V15.00,2014-07-22 05:11:00,
2014-07-22 01:16:00,72.8,68.0,30.05,NNE,13,0.0,0.0,85,0.00,,,0.00,VWS V15.00,2014-07-22 05:16:00,
2014-07-22 01:21:00,72.6,68.2,30.05,NNE,13,0.0,0.0,86,0.00,,,0.00,VWS V15.00,2014-07-22 05:21:00,
2014-07-22 01:26:00,72.4,68.0,30.05,NNE,13,0.0,0.0,86,0.00,,,0.00,VWS V15.00,2014-07-22 05:26:00,
2014-07-22 01:31:00,72.3,68.2,30.04,NNE,13,0.0,0.0,87,0.00,,,0.00,VWS V15.00,2014-07-22 05:31:00,
2014-07-22 01:36:00,72.3,68.2,30.05,NNE,13,0.0,0.0,87,0.00,,,0.00,VWS V15.00,2014-07-22 05:36:00,
2014-07-22 01:41:00,72.2,68.1,30.05,NNE,13,0.0,0.0,87,0.00,,,0.00,VWS V15.00,2014-07-22 05:41:00,
2014-07-22 01:46:00,72.3,68.6,30.05,NNE,13,0.0,0.0,88,0.00,,,0.00,VWS V15.00,2014-07-22 05:46:00,
2014-07-22 01:51:00,72.3,68.2,30.05,NNE,13,0.0,0.0,87,0.00,,,0.00,VWS V15.00,2014-07-22 05:51:00,
2014-07-22 01:56:00,72.2,68.1,30.05,NNE,13,0.0,0.0,87,0.00,,,0.00,VWS V15.00,2014-07-22 05:56:00,
2014-07-22 02:01:00,72.1,68.3,30.04,NNE,13,0.0,0.0,88,0.00,,,0.00,VWS V15.00,2014-07-22 06:01:00,
2014-07-22 02:06:00,72.0,68.3,30.04,NNE,13,0.0,1.0,88,0.00,,,0.00,VWS V15.00,2014-07-22 06:06:00,
2014-07-22 02:11:00,72.0,68.6,30.04,NNE,13,0.0,0.0,89,0.00,,,0.00,VWS V15.00,2014-07-22 06:11:00,
2014-07-22 02:16:00,72.1,68.7,30.04,NNE,13,0.0,0.0,89,0.00,,,0.00,VWS V15.00,2014-07-22 06:16:00,
2014-07-22 02:21:00,72.2,68.4,30.04,NNE,13,0.0,0.0,88,0.00,,,0.00,VWS V15.00,2014-07-22 06:21:00,
2014-07-22 02:26:00,72.2,68.4,30.04,NNE,13,0.0,0.0,88,0.00,,,0.00,VWS V15.00,2014-07-22 06:26:00,
2014-07-22 02:31:00,72.2,68.4,30.04,NNE,13,0.0,0.0,88,0.00,,,0.00,VWS V15.00,2014-07-22 06:31:00,
2014-07-22 02:36:00,72.0,68.3,30.03,NNE,13,0.0,0.0,88,0.00,,,0.00,VWS V15.00,2014-07-22 06:36:00,
2014-07-22 02:41:00,71.8,68.1,30.04,NNE,13,0.0,0.0,88,0.00,,,0.00,VWS V15.00,2014-07-22 06:41:00,
2014-07-22 02:46:00,71.5,67.8,30.04,NNE,13,0.0,0.0,88,0.00,,,0.00,VWS V15.00,2014-07-22 06:46:00,
2014-07-22 02:51:00,71.3,67.9,30.04,NNE,13,0.0,0.0,89,0.00,,,0.00,VWS V15.00,2014-07-22 06:51:00,
2014-07-22 02:56:00,71.1,68.0,30.03,NNE,13,0.0,0.0,90,0.00,,,0.00,VWS V15.00,2014-07-22 06:56:00,
2014-07-22 03:01:00,71.0,67.9,30.03,NNE,13,0.0,0.0,90,0.00,,,0.00,VWS V15.00,2014-07-22 07:01:00,
2014-07-22 03:06:00,70.9,67.8,30.03,NNE,13,0.0,0.0,90,0.00,,,0.00,VWS V15.00,2014-07-22 07:06:00,
2014-07-22 03:11:00,70.7,67.6,30.03,NNE,13,0.0,0.0,90,0.00,,,0.00,VWS V15.00,2014-07-22 07:11:00,
2014-07-22 03:16:00,70.6,67.8,30.04,NNE,13,0.0,0.0,91,0.00,,,0.00,VWS V15.00,2014-07-22 07:16:00,
2014-07-22 03:21:00,70.4,67.7,30.04,NNE,13,0.0,0.0,91,0.00,,,0.00,VWS V15.00,2014-07-22 07:21:00,
2014-07-22 03:26:00,70.3,67.6,30.04,NNE,13,0.0,0.0,91,0.00,,,0.00,VWS V15.00,2014-07-22 07:26:00,
2014-07-22 03:31:00,70.1,67.4,30.04,NNE,13,0.0,0.0,91,0.00,,,0.00,VWS V15.00,2014-07-22 07:31:00,
2014-07-22 03:36:00,70.0,67.6,30.04,NNE,13,0.0,0.0,92,0.00,,,0.00,VWS V15.00,2014-07-22 07:36:00,
2014-07-22 03:41:00,70.0,67.6,30.03,NNE,13,0.0,0.0,92,0.00,,,0.00,VWS V15.00,2014-07-22 07:41:00,
2014-07-22 03:46:00,70.1,68.0,30.03,NNE,13,0.0,0.0,93,0.00,,,0.00,VWS V15.00,2014-07-22 07:46:00,
2014-07-22 03:51:00,70.2,68.1,30.03,NNE,13,0.0,0.0,93,0.00,,,0.00,VWS V15.00,2014-07-22 07:51:00,
2014-07-22 03:56:00,70.4,68.3,30.03,NNE,13,0.0,0.0,93,0.00,,,0.00,VWS V15.00,2014-07-22 07:56:00,
2014-07-22 04:01:00,70.7,68.6,30.03,NNE,13,0.0,1.0,93,0.00,,,0.00,VWS V15.00,2014-07-22 08:01:00,
2014-07-22 04:06:00,71.0,68.6,30.03,NNE,13,0.0,1.0,92,0.00,,,0.00,VWS V15.00,2014-07-22 08:06:00,
2014-07-22 04:11:00,71.2,68.4,30.03,NNE,23,0.0,1.0,91,0.00,,,0.00,VWS V15.00,2014-07-22 08:11:00,
2014-07-22 04:16:00,71.3,68.5,30.03,NE,47,2.0,2.0,91,0.00,,,0.00,VWS V15.00,2014-07-22 08:16:00,
2014-07-22 04:21:00,71.5,68.7,30.03,NE,47,0.0,0.0,91,0.00,,,0.00,VWS V15.00,2014-07-22 08:21:00,
2014-07-22 04:26:00,71.6,68.5,30.03,NE,47,0.0,1.0,90,0.00,,,0.00,VWS V15.00,2014-07-22 08:26:00,
2014-07-22 04:31:00,71.7,68.6,30.03,NE,47,0.0,2.0,90,0.00,,,0.00,VWS V15.00,2014-07-22 08:31:00,
2014-07-22 04:36:00,71.8,68.7,30.03,NE,47,0.0,2.0,90,0.00,,,0.00,VWS V15.00,2014-07-22 08:36:00,
2014-07-22 04:41:00,71.8,68.7,30.03,NE,47,0.0,0.0,90,0.00,,,0.00,VWS V15.00,2014-07-22 08:41:00,
2014-07-22 04:46:00,71.5,67.8,30.03,NE,47,0.0,0.0,88,0.00,,,0.00,VWS V15.00,2014-07-22 08:46:00,
2014-07-22 04:51:00,70.8,67.4,30.03,NE,47,0.0,0.0,89,0.00,,,0.00,VWS V15.00,2014-07-22 08:51:00,
2014-07-22 04:56:00,70.4,67.3,30.03,NE,47,0.0,0.0,90,0.00,,,0.00,VWS V15.00,2014-07-22 08:56:00,
2014-07-22 05:01:00,70.4,67.7,30.03,NE,47,0.0,0.0,91,0.00,,,0.00,VWS V15.00,2014-07-22 09:01:00,
2014-07-22 05:06:00,70.3,67.9,30.04,NE,47,0.0,0.0,92,0.00,,,0.00,VWS V15.00,2014-07-22 09:06:00,
2014-07-22 05:11:00,70.2,67.8,30.04,NE,47,0.0,0.0,92,0.00,,,0.00,VWS V15.00,2014-07-22 09:11:00,
2014-07-22 05:16:00,70.2,67.8,30.04,NE,47,0.0,0.0,92,0.00,,,0.00,VWS V15.00,2014-07-22 09:16:00,
2014-07-22 05:21:00,70.1,67.7,30.04,NE,47,0.0,0.0,92,0.00,,,0.00,VWS V15.00,2014-07-22 09:21:00,
2014-07-22 05:26:00,70.0,67.6,30.04,NE,47,0.0,0.0,92,0.00,,,0.00,VWS V15.00,2014-07-22 09:26:00,
2014-07-22 05:31:00,69.9,67.5,30.04,NE,47,0.0,0.0,92,0.00,,,0.00,VWS V15.00,2014-07-22 09:31:00,
2014-07-22 05:36:00,69.7,67.3,30.04,NE,47,0.0,0.0,92,0.00,,,0.00,VWS V15.00,2014-07-22 09:36:00,
2014-07-22 05:41:00,69.6,67.5,30.05,NE,47,0.0,0.0,93,0.00,,,0.00,VWS V15.00,2014-07-22 09:41:00,
2014-07-22 05:46:00,69.5,67.4,30.05,NE,47,0.0,0.0,93,0.00,,,0.00,VWS V15.00,2014-07-22 09:46:00,
2014-07-22 05:51:00,69.3,67.2,30.05,NE,47,0.0,0.0,93,0.00,,,0.00,VWS V15.00,2014-07-22 09:51:00,
2014-07-22 05:56:00,69.1,67.0,30.05,NE,47,0.0,0.0,93,0.00,,,0.00,VWS V15.00,2014-07-22 09:56:00,
2014-07-22 06:01:00,68.9,66.8,30.05,NE,47,0.0,0.0,93,0.00,,,0.00,VWS V15.00,2014-07-22 10:01:00,
2014-07-22 06:06:00,68.8,67.0,30.05,NE,47,0.0,0.0,94,0.00,,,0.00,VWS V15.00,2014-07-22 10:06:00,
2014-07-22 06:11:00,68.8,67.0,30.06,NE,47,0.0,0.0,94,0.00,,,0.00,VWS V15.00,2014-07-22 10:11:00,
2014-07-22 06:16:00,68.6,66.8,30.06,NE,47,0.0,0.0,94,0.00,,,0.00,VWS V15.00,2014-07-22 10:16:00,
2014-07-22 06:21:00,68.5,66.4,30.06,NE,47,0.0,0.0,93,0.00,,,0.00,VWS V15.00,2014-07-22 10:21:00,
2014-07-22 06:26:00,68.3,66.5,30.06,NE,47,0.0,0.0,94,0.00,,,0.00,VWS V15.00,2014-07-22 10:26:00,
2014-07-22 06:31:00,68.2,66.4,30.06,NE,47,0.0,0.0,94,0.00,,,0.00,VWS V15.00,2014-07-22 10:31:00,
2014-07-22 06:36:00,68.1,66.6,30.06,NE,47,0.0,0.0,95,0.00,,,0.00,VWS V15.00,2014-07-22 10:36:00,
2014-07-22 06:41:00,68.1,66.6,30.06,NE,47,0.0,0.0,95,0.00,,,0.00,VWS V15.00,2014-07-22 10:41:00,
2014-07-22 06:46:00,68.0,66.2,30.07,NE,47,0.0,0.0,94,0.00,,,0.00,VWS V15.00,2014-07-22 10:46:00,
2014-07-22 06:51:00,67.9,66.1,30.07,NE,47,0.0,0.0,94,0.00,,,0.00,VWS V15.00,2014-07-22 10:51:00,
2014-07-22 06:56:00,67.9,66.4,30.07,NE,47,0.0,0.0,95,0.00,,,0.00,VWS V15.00,2014-07-22 10:56:00,
2014-07-22 07:01:00,67.9,66.4,30.07,NE,47,0.0,0.0,95,0.00,,,0.00,VWS V15.00,2014-07-22 11:01:00,
2014-07-22 07:06:00,68.0,66.5,30.07,NE,47,0.0,0.0,95,0.00,,,0.00,VWS V15.00,2014-07-22 11:06:00,
2014-07-22 07:11:00,68.1,66.6,30.07,NE,47,0.0,0.0,95,0.00,,,0.00,VWS V15.00,2014-07-22 11:11:00,
2014-07-22 07:16:00,68.1,66.6,30.07,NE,47,0.0,0.0,95,0.00,,,0.00,VWS V15.00,2014-07-22 11:16:00,
2014-07-22 07:21:00,68.3,66.8,30.07,NE,47,0.0,0.0,95,0.00,,,0.00,VWS V15.00,2014-07-22 11:21:00,
2014-07-22 07:26:00,68.4,66.9,30.07,NE,47,0.0,0.0,95,0.00,,,0.00,VWS V15.00,2014-07-22 11:26:00,
2014-07-22 07:31:00,68.7,67.2,30.07,NE,47,0.0,0.0,95,0.00,,,0.00,VWS V15.00,2014-07-22 11:31:00,
2014-07-22 07:36:00,69.2,68.0,30.07,NE,47,0.0,0.0,96,0.00,,,0.00,VWS V15.00,2014-07-22 11:36:00,
2014-07-22 07:41:00,69.7,68.2,30.07,NE,47,0.0,0.0,95,0.00,,,0.00,VWS V15.00,2014-07-22 11:41:00,
2014-07-22 07:46:00,70.3,68.5,30.07,NE,47,0.0,0.0,94,0.00,,,0.00,VWS V15.00,2014-07-22 11:46:00,
2014-07-22 07:51:00,70.7,68.9,30.08,NE,47,0.0,0.0,94,0.00,,,0.00,VWS V15.00,2014-07-22 11:51:00,
2014-07-22 07:56:00,71.3,69.5,30.07,NE,47,0.0,0.0,94,0.00,,,0.00,VWS V15.00,2014-07-22 11:56:00,
2014-07-22 08:01:00,72.1,70.0,30.07,NE,47,0.0,0.0,93,0.00,,,0.00,VWS V15.00,2014-07-22 12:01:00,
2014-07-22 08:06:00,72.9,70.4,30.07,NE,47,0.0,0.0,92,0.00,,,0.00,VWS V15.00,2014-07-22 12:06:00,
2014-07-22 08:11:00,73.7,70.9,30.07,NE,47,0.0,0.0,91,0.00,,,0.00,VWS V15.00,2014-07-22 12:11:00,
2014-07-22 08:16:00,74.1,70.7,30.07,NE,47,0.0,0.0,89,0.00,,,0.00,VWS V15.00,2014-07-22 12:16:00,
2014-07-22 08:21:00,74.3,70.8,30.07,NE,47,0.0,0.0,89,0.00,,,0.00,VWS V15.00,2014-07-22 12:21:00,
2014-07-22 08:26:00,74.4,70.6,30.07,NE,47,0.0,0.0,88,0.00,,,0.00,VWS V15.00,2014-07-22 12:26:00,
2014-07-22 08:31:00,74.6,71.2,30.07,NE,47,0.0,0.0,89,0.00,,,0.00,VWS V15.00,2014-07-22 12:31:00,
2014-07-22 08:36:00,75.2,71.4,30.07,NE,47,0.0,0.0,88,0.00,,,0.00,VWS V15.00,2014-07-22 12:36:00,
2014-07-22 08:41:00,75.9,72.4,30.08,NE,47,0.0,0.0,89,0.00,,,0.00,VWS V15.00,2014-07-22 12:41:00,
2014-07-22 08:46:00,76.6,72.8,30.08,NE,47,0.0,0.0,88,0.00,,,0.00,VWS V15.00,2014-07-22 12:46:00,
2014-07-22 08:51:00,77.2,72.3,30.08,NE,48,1.0,1.0,85,0.00,,,0.00,VWS V15.00,2014-07-22 12:51:00,
2014-07-22 08:56:00,77.6,72.4,30.08,NE,48,0.0,1.0,84,0.00,,,0.00,VWS V15.00,2014-07-22 12:56:00,
2014-07-22 09:01:00,77.8,72.2,30.07,NE,48,0.0,0.0,83,0.00,,,0.00,VWS V15.00,2014-07-22 13:01:00,
2014-07-22 09:06:00,78.2,73.0,30.07,NE,48,0.0,0.0,84,0.00,,,0.00,VWS V15.00,2014-07-22 13:06:00,
2014-07-22 09:11:00,78.6,73.0,30.07,NE,48,0.0,1.0,83,0.00,,,0.00,VWS V15.00,2014-07-22 13:11:00,
2014-07-22 09:16:00,78.7,72.8,30.07,NE,48,0.0,1.0,82,0.00,,,0.00,VWS V15.00,2014-07-22 13:16:00,
2014-07-22 09:21:00,78.8,73.2,30.07,NE,48,0.0,0.0,83,0.00,,,0.00,VWS V15.00,2014-07-22 13:21:00,
2014-07-22 09:26:00,79.2,73.9,30.07,ESE,112,0.0,5.0,84,0.00,,,0.00,VWS V15.00,2014-07-22 13:26:00,
2014-07-22 09:31:00,79.8,74.5,30.07,ESE,112,0.0,1.0,84,0.00,,,0.00,VWS V15.00,2014-07-22 13:31:00,
2014-07-22 09:36:00,80.2,74.2,30.07,ESE,112,0.0,1.0,82,0.00,,,0.00,VWS V15.00,2014-07-22 13:36:00,
2014-07-22 09:41:00,80.5,74.1,30.07,ESE,112,0.0,1.0,81,0.00,,,0.00,VWS V15.00,2014-07-22 13:41:00,
2014-07-22 09:46:00,80.8,74.1,30.07,ESE,113,1.0,5.0,80,0.00,,,0.00,VWS V15.00,2014-07-22 13:46:00,
2014-07-22 09:51:00,81.2,74.8,30.07,SE,127,5.0,5.0,81,0.00,,,0.00,VWS V15.00,2014-07-22 13:51:00,
2014-07-22 09:56:00,81.3,74.2,30.07,ESE,119,0.0,5.0,79,0.00,,,0.00,VWS V15.00,2014-07-22 13:56:00,
2014-07-22 10:01:00,81.5,74.0,30.07,ESE,119,0.0,0.0,78,0.00,,,0.00,VWS V15.00,2014-07-22 14:01:00,
2014-07-22 10:06:00,81.7,74.6,30.07,ESE,119,0.0,0.0,79,0.00,,,0.00,VWS V15.00,2014-07-22 14:06:00,
2014-07-22 10:11:00,81.7,73.8,30.07,SSW,208,0.0,1.0,77,0.00,,,0.00,VWS V15.00,2014-07-22 14:11:00,
2014-07-22 10:16:00,81.7,74.2,30.06,SSW,208,0.0,1.0,78,0.00,,,0.00,VWS V15.00,2014-07-22 14:16:00,
2014-07-22 10:21:00,81.9,74.0,30.06,SSW,208,0.0,1.0,77,0.00,,,0.00,VWS V15.00,2014-07-22 14:21:00,
2014-07-22 10:26:00,82.0,74.8,30.06,SW,214,1.0,2.0,79,0.00,,,0.00,VWS V15.00,2014-07-22 14:26:00,
2014-07-22 10:31:00,82.0,73.7,30.06,SW,234,0.0,2.0,76,0.00,,,0.00,VWS V15.00,2014-07-22 14:31:00,
2014-07-22 10:36:00,82.1,74.2,30.06,SW,234,0.0,2.0,77,0.00,,,0.00,VWS V15.00,2014-07-22 14:36:00,
2014-07-22 10:41:00,82.5,74.6,30.06,SW,234,0.0,0.0,77,0.00,,,0.00,VWS V15.00,2014-07-22 14:41:00,
2014-07-22 10:46:00,83.2,74.8,30.06,SSW,204,0.0,1.0,76,0.00,,,0.00,VWS V15.00,2014-07-22 14:46:00,
2014-07-22 10:51:00,83.0,74.3,30.06,WSW,252,0.0,0.0,75,0.00,,,0.00,VWS V15.00,2014-07-22 14:51:00,
2014-07-22 10:56:00,83.0,74.7,30.06,West,262,1.0,1.0,76,0.00,,,0.00,VWS V15.00,2014-07-22 14:56:00,
2014-07-22 11:01:00,83.2,74.5,30.06,West,262,0.0,0.0,75,0.00,,,0.00,VWS V15.00,2014-07-22 15:01:00,
2014-07-22 11:06:00,83.2,74.1,30.06,West,267,0.0,5.0,74,0.00,,,0.00,VWS V15.00,2014-07-22 15:06:00,
2014-07-22 11:11:00,83.2,74.1,30.05,West,266,0.0,1.0,74,0.00,,,0.00,VWS V15.00,2014-07-22 15:11:00,
2014-07-22 11:16:00,83.3,74.2,30.06,WSW,253,0.0,2.0,74,0.00,,,0.00,VWS V15.00,2014-07-22 15:16:00,
2014-07-22 11:21:00,83.3,73.3,30.05,WSW,252,1.0,3.0,72,0.00,,,0.00,VWS V15.00,2014-07-22 15:21:00,
2014-07-22 11:26:00,83.5,73.9,30.05,WSW,252,0.0,3.0,73,0.00,,,0.00,VWS V15.00,2014-07-22 15:26:00,
2014-07-22 11:31:00,83.7,74.5,30.05,SE,144,0.0,2.0,74,0.00,,,0.00,VWS V15.00,2014-07-22 15:31:00,
2014-07-22 11:36:00,84.1,74.1,30.05,SSW,196,0.0,2.0,72,0.00,,,0.00,VWS V15.00,2014-07-22 15:36:00,